x

Frying Pan Shoals, Nc Buoy (41013) Wave Buoy

11:50 - Fri 2nd Dec 2016 All times are EST. -5 hours from GMT.

  • Sig Wave height 3.9ft
  • Swell Direction
  • Peak Period 7s
  • Average Period 5s
  • Wind
    16mph, 18mph gusts
  • Sea Temp 75°f
  • Aire Temp 57°f
  • Sea Pressure 1019.5mb
  • Frying Pan Shoals, Nc Buoy
  • Frying Pan Shoals, Nc Buoy

More Historic Weather Station data

Upgrade to MSW Pro to gain access to the past 30 days of data for over 8000 Wavebouys and Weather Stations around the globe.

Join Pro

Comparision Forecast

View Surf forecast
   
vie 12/02 11:50 4ft 7s 5s 16 18 mph 1019.5mb 75f 57f
11:40 4ft  -  5s 16 20 mph 1019.5mb 75f 57f
11:30  -   -   -  16 20 mph 1019.6mb 75f 57f
11:20  -   -   -  13 20 mph 1019.9mb 75f 57f
11:10  -   -   -  13 20 mph 1019.9mb 75f 57f
11:00  -   -   -  13 18 mph 1019.9mb 75f 58f
10:50 4.5ft 6s 5s 13 20 mph 1020mb 75f 57f
10:40 4.5ft  -  5s 13 18 mph 1020mb 75f 57f
10:30  -   -   -  13 20 mph 1020mb - -
10:20  -   -   -  13 20 mph 1020.1mb 75f 57f
10:10  -   -   -  13 18 mph 1020.1mb 75f 57f
10:00  -   -   -  13 18 mph 1020mb 75f 57f
9:50 4.5ft 5s 5s 13 20 mph 1020mb 75f 58f
9:40 4.5ft  -  5s 13 18 mph 1019.9mb 75f 58f
9:30  -   -   -  13 20 mph 1019.6mb 75f 57f
9:20  -   -   -  13 20 mph 1019.5mb 75f 58f
9:10  -   -   -  13 20 mph 1019.4mb 75f 58f
9:00  -   -   -  13 20 mph 1019.4mb 75f 58f
8:50 4.5ft 5s 5s 16 20 mph 1019.4mb 75f 58f
8:40 4.5ft  -  5s 16 20 mph 1019.1mb 75f 58f
8:30  -   -   -  16 20 mph 1019.1mb 75f 57f
8:20  -   -   -  16 22 mph 1018.9mb 75f 57f
8:10  -   -   -  16 20 mph 1018.9mb 75f 58f
8:00  -   -   -  16 20 mph 1018.9mb 75f 57f
7:50 5ft 5s 5s 16 22 mph 1018.9mb 75f 58f
7:40 5ft  -  5s 16 22 mph 1018.8mb 75f 58f
7:30  -   -   -  18 25 mph 1018.6mb 75f 58f
7:20  -   -   -  18 22 mph 1018.5mb 75f 58f
7:10  -   -   -  18 25 mph 1018.3mb 75f 58f
7:00  -   -   -  18 25 mph 1018mb 75f 58f
6:50 5ft 5s 5s 18 20 mph 1017.8mb 75f 58f
6:40 5ft  -  5s 18 25 mph 1017.8mb 75f 58f
6:30  -   -   -  18 22 mph 1017.6mb 75f 58f
6:20  -   -   -  20 25 mph 1017.5mb 75f 58f
6:10  -   -   -  20 27 mph 1017.5mb 75f 58f
6:00  -   -   -  20 27 mph 1017.3mb 75f 59f
5:50 4.5ft 7s 5s 20 25 mph 1017mb 75f 60f
5:40 4.5ft  -  5s 18 25 mph 1017mb 75f 60f
5:30  -   -   -  20 25 mph 1016.9mb - 60f
5:20  -   -   -  20 27 mph 1016.8mb 75f 60f
5:10  -   -   -  20 25 mph 1016.5mb - 60f
5:00  -   -   -  16 22 mph 1016.5mb 75f 60f
4:50 4.5ft 7s 5s 16 22 mph 1016.5mb 75f 60f
4:40  -   -   -  18 22 mph 1016.4mb 75f 59f
4:30  -   -   -  18 22 mph 1016.4mb 75f 60f
4:20  -   -   -  16 20 mph 1016.3mb 75f 60f
4:10  -   -   -  16 20 mph 1016.3mb 74f 60f
4:00  -   -   -  16 22 mph 1016mb 74f 61f
3:50 5ft 8s 5s 16 20 mph 1016mb 74f 61f
3:40 5ft  -  5s 16 20 mph 1016mb 75f 62f
3:30  -   -   -  16 20 mph 1015.9mb 74f 62f
3:20  -   -   -  16 22 mph 1015.9mb 74f 62f
3:10  -   -   -  16 20 mph 1015.8mb 74f 62f
3:00  -   -   -  16 20 mph 1015.8mb 74f 62f
2:50 5ft 8s 5s 16 22 mph 1016mb 74f 62f
2:40 5ft  -  5s 16 20 mph 1016mb 75f 62f
2:30  -   -   -  16 20 mph 1016mb 75f 62f
2:20  -   -   -  16 20 mph 1015.8mb 75f 62f
2:10  -   -   -  16 20 mph 1015.8mb 75f 62f
2:00  -   -   -  16 20 mph 1015.5mb 75f 62f
1:50 5ft 8s 5s 13 18 mph 1015.4mb 75f 62f
1:40  -   -   -  13 20 mph 1015.4mb 75f 62f
1:30  -   -   -  16 22 mph 1015.5mb 75f 63f
1:20  -   -   -  18 22 mph 1015.5mb 75f 63f
1:10  -   -   -  18 22 mph 1015.5mb - 63f
1:00  -   -   -  18 22 mph 1015.5mb 75f 63f
12:50 5ft 8s 5s 18 25 mph 1015.4mb 75f 63f
12:40 5ft  -  5s 18 27 mph 1015.3mb 75f 63f
12:30  -   -   -  18 25 mph 1015.1mb 75f 63f
12:20  -   -   -  18 22 mph 1015.1mb 75f 64f
12:10  -   -   -  18 25 mph 1015.1mb 75f 64f
12:00  -   -   -  18 25 mph 1015mb 75f 64f
jue 12/01 11:50 5ft 8s 5s 18 22 mph 1015mb 75f 64f
11:40 5ft  -  5s 18 25 mph 1015mb - 64f
11:30  -   -   -  18 27 mph 1015mb 75f 64f
11:20  -   -   -  18 22 mph 1015mb 75f 65f
11:10  -   -   -  18 22 mph 1015mb 75f 64f
11:00  -   -   -  18 25 mph 1014.9mb 75f 65f
10:50 5ft 8s 5s 16 25 mph 1014.8mb 75f 65f
10:40 5ft  -  5s 18 22 mph 1014.8mb 75f 65f
10:30  -   -   -  18 25 mph 1014.6mb 75f 65f
10:20  -   -   -  18 25 mph 1014.6mb 75f 65f
10:10  -   -   -  18 25 mph 1014.6mb 75f 65f
10:00  -   -   -  18 27 mph 1014.5mb 75f 66f
9:50 5.5ft 7s 5s 18 25 mph 1014.5mb 75f 66f
9:40  -   -   -  18 25 mph 1014.4mb 75f 66f
9:30  -   -   -  18 22 mph 1014.1mb 75f 66f
9:20  -   -   -  18 22 mph 1014mb 75f 66f
9:10  -   -   -  18 25 mph 1013.9mb 75f 66f
9:00  -   -   -  20 25 mph 1013.8mb 75f 66f
8:50 5.5ft 8s  -  20 27 mph 1013.6mb 75f 66f
8:40  -   -   -  20 25 mph 1013.5mb 75f 67f
8:30  -   -   -  20 25 mph 1013.5mb 75f 67f
8:20  -   -   -  20 25 mph 1013.4mb 75f 67f
8:10  -   -   -  22 27 mph - 75f 67f
8:00  -   -   -  20 27 mph 1013.1mb 75f 67f
7:50 6ft 8s 5s 22 27 mph 1013mb 75f 68f
7:40 6ft  -  5s 22 29 mph 1012.9mb 75f 68f
7:30  -   -   -  22 29 mph 1012.8mb 75f 68f
7:20  -   -   -  22 27 mph 1012.8mb 75f 68f
7:10  -   -   -  20 27 mph 1012.8mb 75f 68f
7:00  -   -   -  22 29 mph 1012.6mb 75f 68f
6:50 6ft 8s 5s 22 29 mph 1012.5mb 75f 68f
6:40 6ft  -  5s 22 27 mph 1012.4mb 75f 68f
6:30  -   -   -  20 25 mph 1012.3mb 75f 68f
6:20  -   -   -  20 27 mph 1012.3mb 75f 69f
6:10  -   -   -  22 27 mph 1012.1mb 75f 69f
6:00  -   -   -  20 25 mph 1012mb 75f 69f
5:50 6ft 8s 5s 20 25 mph 1012.1mb 75f 69f
5:40 6ft  -  5s 20 27 mph 1011.9mb 75f 69f
5:30  -   -   -  20 27 mph 1011.9mb 75f 69f
5:20  -   -   -  20 29 mph 1011.6mb 75f 69f
5:10  -   -   -  20 27 mph 1011.5mb 75f 69f
5:00  -   -   -  20 27 mph 1011.4mb 75f 69f
4:50 6ft 8s 5s 20 27 mph 1011.4mb 75f 69f
4:40 6ft  -  5s 20 27 mph 1011.4mb 75f 68f
4:30  -   -   -  20 27 mph 1011.4mb 75f 68f
4:20  -   -   -  20 25 mph 1011.5mb 74f 68f
4:10  -   -   -  20 27 mph 1011.4mb 74f 68f
4:00  -   -   -  20 25 mph 1011.3mb 74f 68f
3:50 7ft 8s 6s 20 25 mph 1011.1mb 74f 68f
3:40 7ft  -  6s 20 27 mph 1011.1mb 74f 68f
3:30  -   -   -  20 25 mph 1011mb 74f 68f
3:20  -   -   -  22 27 mph 1011mb 74f 68f
3:10  -   -   -  20 27 mph 1011mb 74f 68f
3:00  -   -   -  22 27 mph 1011mb 74f 68f
2:50 7ft 8s 5s 22 27 mph 1011mb 74f 68f
2:40  -   -   -  22 27 mph 1011mb 74f 68f
2:30  -   -   -  22 29 mph 1011mb 74f 68f
2:20  -   -   -  22 27 mph 1011mb 74f 68f
2:10  -   -   -  22 29 mph 1011mb 74f 68f
2:00  -   -   -  22 31 mph 1011mb 74f 68f
12:40 7ft  -  5s 22 27 mph 1011.5mb 75f 67f
12:30  -   -   -  22 27 mph 1011.6mb 75f 67f
12:20  -   -   -  22 27 mph 1011.8mb 75f 67f
12:10  -   -   -  22 27 mph 1012mb 75f 67f
12:00  -   -   -  20 25 mph 1012mb 75f 67f
11:50 7ft 8s 6s 20 25 mph 1012mb 75f 67f
11:40 7ft  -  6s 20 27 mph 1012.1mb - 67f
11:30  -   -   -  22 29 mph 1012.3mb 75f 67f
11:20  -   -   -  22 27 mph 1012.5mb 75f 67f
11:10  -   -   -  20 27 mph 1012.5mb 75f 67f
11:00  -   -   -  22 27 mph 1012.5mb 75f 67f
10:50 7.5ft 8s 6s 22 27 mph 1012.5mb 75f 67f
10:40 7.5ft  -  6s 22 27 mph 1012.5mb 75f 68f
10:30  -   -   -  22 27 mph 1012.4mb 75f 68f
10:20  -   -   -  20 27 mph 1012.5mb 75f 68f
10:10  -   -   -  20 25 mph 1012.4mb 75f 67f
10:00  -   -   -  22 27 mph 1012.1mb 75f 68f
9:50 7.5ft 9s 6s 22 27 mph 1012.3mb 75f 68f
9:40 7.5ft  -  6s 22 27 mph 1012.1mb 75f 68f
9:30  -   -   -  22 27 mph 1012.3mb 75f 68f
9:20  -   -   -  22 29 mph 1012.1mb 75f 69f
9:10  -   -   -  25 29 mph 1012mb 75f 70f
9:00  -   -   -  22 27 mph 1011.8mb 75f 70f
8:50 8ft 8s 6s 22 31 mph 1011.6mb 75f 71f
8:40 8ft  -  6s 20 27 mph 1011.5mb 75f 71f
8:30  -   -   -  20 25 mph 1011.4mb 75f 70f
8:20  -   -   -  20 25 mph 1011.4mb 75f 70f
8:10  -   -   -  22 27 mph 1011.1mb 75f 70f
8:00  -   -   -  20 25 mph 1011.1mb 75f 70f
7:50 8.5ft 8s 6s 22 27 mph 1011.1mb 75f 69f
7:40  -   -   -  22 27 mph 1010.9mb 75f 69f
7:30  -   -   -  25 31 mph 1010.8mb 75f 71f
7:20  -   -   -  25 29 mph 1010.5mb 75f 72f
7:10  -   -   -  25 31 mph 1010.5mb 75f 72f
7:00  -   -   -  25 34 mph 1010.3mb 75f 72f
6:50 9ft 8s 6s 25 31 mph 1010mb 75f 72f
6:40 9ft  -  6s 25 31 mph 1009.9mb 75f 72f
6:30  -   -   -  25 36 mph 1009.9mb 75f 72f
6:20  -   -   -  29 36 mph 1009.8mb 75f 73f
6:10  -   -   -  27 36 mph 1009.8mb 75f 73f
6:00  -   -   -  25 29 mph 1009.5mb 75f 74f
5:50 10ft 8s 6s 22 29 mph 1009.4mb 75f 74f
5:40 10ft  -  6s 22 29 mph 1009.1mb 75f 74f
5:30  -   -   -  22 27 mph 1009.1mb 75f 74f
5:20  -   -   -  22 29 mph 1009mb 75f 74f
5:10  -   -   -  22 29 mph 1009mb 75f 74f
5:00  -   -   -  27 34 mph 1008.9mb 75f 75f
4:50 9ft 8s 6s 29 38 mph 1009mb 75f 75f
4:40  -   -   -  27 34 mph 1009mb 75f 75f
4:30  -   -   -  27 34 mph 1009mb 75f 75f
4:20  -   -   -  29 36 mph 1009.3mb 75f 75f
4:10  -   -   -  29 36 mph 1009.3mb 75f 75f
4:00  -   -   -  27 36 mph 1009.3mb 75f 76f
3:50 10ft 8s 6s 29 38 mph 1009.1mb 75f 76f
3:40 10ft  -  6s 27 40 mph 1009.1mb 75f 76f
3:30  -   -   -  29 40 mph 1009.1mb 75f 76f
3:20  -   -   -  31 38 mph 1009.4mb 75f 76f
3:10  -   -   -  29 40 mph 1009.4mb - 76f
3:00  -   -   -  31 38 mph 1009.4mb 75f 77f
2:50 10ft 8s 6s 31 40 mph 1009.5mb - -
2:40  -   -   -  31 40 mph 1009.5mb 75f 77f
2:30  -   -   -  29 36 mph 1009.3mb 75f 77f
2:20  -   -   -  31 40 mph 1009.3mb 75f 77f
2:10  -   -   -  29 36 mph 1009.4mb 75f -
2:00  -   -   -  27 36 mph 1009.4mb 75f 77f
1:50 10ft 8s 6s 27 34 mph 1009.5mb - -
1:40 10ft  -  6s 29 36 mph 1009.5mb 75f 77f
1:30  -   -   -  29 38 mph 1009.5mb 75f 77f
1:20  -   -   -  29 36 mph 1009.5mb 75f 77f
1:10  -   -   -  29 38 mph 1009.5mb 75f 77f
1:00  -   -   -  29 40 mph 1009.4mb 75f 77f
12:50 10ft 8s 6s 25 34 mph 1009.5mb 75f 77f
12:40 10ft  -  6s 27 34 mph 1009.5mb 75f 78f
12:30  -   -   -  27 34 mph 1009.5mb 75f 78f
12:20  -   -   -  29 36 mph 1009.8mb 75f 78f
12:10  -   -   -  29 38 mph 1009.6mb 75f 78f
12:00  -   -   -  29 38 mph 1009.8mb 75f 78f
mié 11/30 11:50 10ft 8s 6s 29 38 mph 1009.9mb 75f 78f
11:40 10ft  -  6s 29 38 mph 1010mb 75f 78f
11:30  -   -   -  29 38 mph 1010mb 75f 78f
11:20  -   -   -  29 36 mph 1010.1mb 75f 78f
11:10  -   -   -  29 38 mph 1010.1mb 75f 78f
11:00  -   -   -  31 36 mph 1010.3mb 75f 78f
10:50 9.5ft 8s 6s 29 36 mph 1010.4mb 75f 78f
10:40 9.5ft  -  6s 29 36 mph 1010.4mb 75f 78f
10:30  -   -   -  29 38 mph 1010.4mb 75f 78f
10:20  -   -   -  27 38 mph 1010.5mb 75f 78f
10:10  -   -   -  29 38 mph 1010.5mb 75f 78f
10:00  -   -   -  29 34 mph 1010.5mb 75f 78f
9:50 9ft 7s 6s 31 40 mph 1010.5mb 75f 78f
9:40 9ft  -  6s 29 38 mph 1010.5mb 75f 78f
9:30  -   -   -  27 36 mph 1010.8mb 75f 78f
9:20  -   -   -  27 34 mph 1010.8mb 76f 78f
9:10  -   -   -  27 36 mph 1010.9mb 76f 77f
9:00  -   -   -  29 38 mph 1010.9mb 76f 77f
8:50 8.5ft 8s 6s 29 36 mph 1010.9mb 76f 77f
8:40 8.5ft  -  6s 29 36 mph 1010.9mb 76f 77f
8:30  -   -   -  29 38 mph 1011mb 76f 77f
8:20  -   -   -  29 36 mph 1011mb 76f 77f
8:10  -   -   -  29 38 mph 1011mb 76f 77f
8:00  -   -   -  29 38 mph 1011.1mb 76f 77f
7:50 8ft 8s 5s 31 40 mph 1011mb 76f 77f
7:40  -   -   -  31 38 mph 1011mb 76f 77f
7:30  -   -   -  29 36 mph 1011mb 76f 77f
7:20  -   -   -  29 40 mph 1011mb 76f 77f
7:10  -   -   -  29 38 mph 1011.1mb 76f 77f
7:00  -   -   -  27 36 mph 1011mb 76f 76f
6:50 8ft 8s 6s 27 36 mph 1011mb 75f 76f
6:40 8ft  -  6s 27 34 mph 1011mb 75f 75f
6:10  -   -   -  29 36 mph 1011.1mb 75f 76f
6:00  -   -   -  27 34 mph 1011.1mb 75f 75f
5:50 8ft 7s 5s 29 40 mph 1011.3mb 75f 75f
5:40 8ft  -  5s 27 36 mph 1011.4mb 75f 75f
5:30  -   -   -  25 31 mph 1011.3mb 75f 74f
5:20  -   -   -  25 29 mph 1011.1mb 75f 74f
5:10  -   -   -  27 36 mph 1011mb 75f 74f
5:00  -   -   -  29 36 mph 1011.4mb 75f 73f
4:50 8ft 7s 6s 27 36 mph 1011.4mb 74f 74f
4:40 8ft  -  6s 27 36 mph 1011.5mb 74f 74f
4:30  -   -   -  27 34 mph 1011.5mb 74f 74f
4:20  -   -   -  27 31 mph 1011.5mb 74f 73f
4:10  -   -   -  27 31 mph 1011.8mb 74f 73f
4:00  -   -   -  27 34 mph 1011.9mb 74f 73f
3:50 9ft 8s 6s 27 34 mph 1011.9mb 74f 73f
3:40  -   -   -  25 34 mph 1012mb 74f 74f
3:30  -   -   -  22 31 mph 1012mb 74f 74f
3:20  -   -   -  22 29 mph 1011.9mb 74f 73f
3:10  -   -   -  20 25 mph 1012mb 74f 73f
3:00  -   -   -  18 25 mph 1011.9mb 74f 72f
2:50 8ft 8s 6s 20 25 mph 1012mb 74f 71f
2:40 8ft  -  6s 20 25 mph 1012.1mb 74f 71f
2:30  -   -   -  20 25 mph 1012.4mb 74f 71f
2:20  -   -   -  25 29 mph 1012.5mb 74f 71f
2:10  -   -   -  29 43 mph 1012.5mb 74f 71f
2:00  -   -   -  27 45 mph 1011.4mb 74f 72f
1:50 8ft 8s 6s 22 29 mph 1012.4mb 74f 72f
1:40  -   -   -  22 27 mph 1012.6mb 74f 71f
1:30  -   -   -  20 27 mph 1012.9mb 74f 71f
1:20  -   -   -  20 27 mph 1013mb 74f 71f
1:10  -   -   -  20 27 mph 1013mb 74f 71f
1:00  -   -   -  20 27 mph 1013.1mb 74f 71f
12:50 8ft 7s 6s 20 27 mph 1013.3mb 74f 71f
12:40 8ft  -  6s 22 29 mph 1013.4mb 74f 71f
12:30  -   -   -  29 38 mph 1013.5mb 74f 71f
12:20  -   -   -  20 34 mph 1013.8mb 74f 71f
12:10  -   -   -  18 25 mph 1014mb 74f 71f
12:00  -   -   -  20 29 mph 1014.1mb 74f 71f
11:50 8ft 7s 6s 22 29 mph 1014.4mb 74f 71f
11:40  -   -   -  22 27 mph 1014.4mb 74f 72f
11:30  -   -   -  25 40 mph 1014.5mb - 72f
11:20  -   -   -  20 36 mph 1014.4mb 74f 71f
11:10  -   -   -  18 27 mph 1014.8mb 74f 71f
11:00  -   -   -  18 27 mph 1015.1mb 74f 71f
10:50 7ft 7s 5s 18 22 mph 1015.1mb 74f 71f
10:40  -   -   -  18 22 mph 1015.5mb 74f 71f
10:30  -   -   -  16 31 mph 1015.5mb 74f 71f
10:20  -   -   -  13 22 mph 1015.6mb 74f 71f
10:10  -   -   -  20 34 mph 1015.5mb 74f 71f
10:00  -   -   -  16 27 mph 1015.5mb 74f 71f
9:50 7ft 8s 5s 18 29 mph 1015.4mb 74f 71f
9:40  -   -   -  20 29 mph 1015.4mb 74f 71f
9:30  -   -   -  16 22 mph 1015.5mb 74f 71f
9:20  -   -   -  18 31 mph 1015.6mb 74f 73f
9:10  -   -   -  25 34 mph 1015mb 75f 76f
9:00  -   -   -  20 27 mph 1015mb 75f 76f
8:50 7.5ft 7s 6s 27 34 mph 1015mb 75f 76f
8:40  -   -   -  27 34 mph 1014.9mb 75f 76f
8:30 7.5ft  -  6s 25 31 mph 1015mb 75f 75f
8:20  -   -   -  27 34 mph 1015mb 75f 75f
8:10  -   -   -  25 31 mph 1015mb 75f 76f
8:00  -   -   -  25 29 mph 1015mb 75f 76f
7:50 6.5ft 8s 5s 25 29 mph 1015mb 75f 76f
7:40  -   -   -  25 29 mph 1015mb 75f 76f
7:30  -   -   -  22 29 mph 1015mb 75f 76f
7:20  -   -   -  22 31 mph 1015mb 75f 76f
7:10  -   -   -  25 29 mph 1015mb 75f 76f
7:00  -   -   -  25 29 mph 1014.9mb 75f 76f
6:50 7ft 8s 5s 22 29 mph 1015mb 75f 76f
6:40 7ft  -  5s 22 29 mph 1015mb 75f 76f
6:30  -   -   -  22 29 mph 1015mb 75f 76f
6:20  -   -   -  22 29 mph 1015mb 75f 76f
6:10  -   -   -  22 29 mph 1015mb 75f 76f
6:00  -   -   -  22 29 mph 1015mb 75f 76f
5:50 7.5ft 7s 5s 22 29 mph 1014.9mb 75f 76f
5:40  -   -   -  25 29 mph 1015mb 75f 76f
5:30  -   -   -  25 29 mph 1015mb 75f 76f
5:20  -   -   -  22 27 mph 1015mb 75f 76f
5:10  -   -   -  22 29 mph 1014.9mb 75f 76f
5:00  -   -   -  25 29 mph 1014.8mb 75f 76f
4:50 7ft 8s 5s 22 29 mph 1014.9mb 74f 76f
4:40 7ft  -  5s 25 29 mph 1015mb 74f 76f
4:30  -   -   -  25 31 mph 1014.9mb 74f 76f
4:20  -   -   -  25 31 mph 1014.9mb 74f 76f
4:10  -   -   -  25 31 mph 1015mb 74f 76f
4:00  -   -   -  25 31 mph 1015mb 74f 76f
3:50 7.5ft 8s 5s 22 29 mph 1015mb 73f 76f
3:40 7.5ft  -  5s 25 31 mph 1015mb 73f 76f
3:30  -   -   -  25 29 mph 1015mb 73f 76f
3:20  -   -   -  25 31 mph 1015mb 73f 76f
3:10  -   -   -  25 29 mph 1015.1mb 73f 76f
3:00  -   -   -  25 29 mph 1015.4mb 73f 76f
2:50 8ft 7s 6s 22 29 mph 1015.5mb 73f 76f
2:40 8ft  -  6s 22 29 mph 1015.4mb 73f 76f
2:30  -   -   -  22 29 mph 1015.5mb 73f 76f
2:20  -   -   -  22 29 mph 1015.5mb 72f 76f
2:10  -   -   -  25 29 mph 1015.5mb 72f 76f
2:00  -   -   -  22 29 mph 1015.6mb 71f 76f
1:50 7ft 8s 6s 22 29 mph 1015.6mb 71f 75f
1:40  -   -   -  25 31 mph 1015.6mb 71f 75f
1:30  -   -   -  18 25 mph 1015.6mb 71f 74f
1:20  -   -   -  16 25 mph 1015.8mb 71f 73f
1:10  -   -   -  18 22 mph 1016mb 71f 74f
1:00  -   -   -  16 20 mph 1016mb 72f 74f
12:50 7ft 7s 6s 18 25 mph 1016mb 72f 73f
12:40 7ft  -  6s 20 27 mph 1016.3mb 72f 74f
12:30  -   -   -  20 27 mph 1016.1mb 72f 74f
12:20  -   -   -  22 27 mph 1016.3mb 72f 75f
12:10  -   -   -  22 27 mph 1016.3mb 72f 75f
12:00  -   -   -  20 25 mph 1016.3mb 72f 75f
mar 11/29 11:50 8ft 8s 6s 18 25 mph 1016.5mb 72f 74f
11:40 8ft  -  6s 18 25 mph 1016.4mb 72f 74f
11:30  -   -   -  18 22 mph 1016.5mb 72f 74f
11:20  -   -   -  16 20 mph 1016.5mb 72f 73f
11:10  -   -   -  22 29 mph 1016.5mb 72f 73f
11:00  -   -   -  22 29 mph 1016.6mb 72f 74f
10:50 7ft  -  6s 25 31 mph 1016.6mb 73f 74f
10:43 7ft 8s 6s  -  mph - - -
10:40 7ft  -  6s 20 27 mph 1016.9mb 73f 74f
10:30  -   -   -  22 27 mph 1017mb 73f 74f
10:20  -   -   -  22 27 mph 1017mb 73f 74f
10:10  -   -   -  22 27 mph 1017mb 73f 74f
10:00  -   -   -  22 27 mph 1016.9mb 73f 74f
9:50 8ft 8s 6s 22 29 mph 1017mb 73f 74f
9:40  -   -   -  20 29 mph 1017mb 74f 74f
9:30  -   -   -  22 31 mph 1017mb 74f 74f
9:20  -   -   -  27 38 mph 1017mb 74f 75f
9:10  -   -   -  25 34 mph 1016.6mb 74f 76f
9:00  -   -   -  22 34 mph 1016.6mb 74f 75f
8:50 9ft 7s 6s 22 29 mph 1016.9mb 74f 74f
8:40 9ft  -  6s 25 34 mph 1016.9mb 74f 74f
8:30  -   -   -  25 34 mph 1016.8mb 75f 76f
8:20  -   -   -  27 36 mph - 74f 76f
8:10  -   -   -  27 34 mph 1016.5mb 74f 76f
8:00  -   -   -  22 31 mph 1016.5mb 74f 75f
7:50 9ft 8s 6s 22 29 mph 1016.5mb - 73f
7:40 9ft  -  6s 20 29 mph 1016.5mb 74f 72f
7:30  -   -   -  27 36 mph 1016.8mb 74f 71f
7:20  -   -   -  22 31 mph 1016.6mb 74f 71f
7:10  -   -   -  29 38 mph 1016.8mb 74f 74f
7:00  -   -   -  27 36 mph 1016.3mb 74f 76f
6:50 10ft 8s 6s 27 34 mph 1016.1mb 74f 76f
6:40 10ft  -  6s 27 34 mph 1016.1mb 74f 76f
6:30  -   -   -  25 31 mph 1016mb - 76f
6:20  -   -   -  25 34 mph 1016mb 74f 76f
6:10  -   -   -  25 31 mph 1016mb 74f 76f
6:00  -   -   -  25 31 mph 1015.9mb 74f 76f
5:50 10ft 8s 6s 25 31 mph 1015.9mb 74f 76f
5:40 10ft  -  6s 25 31 mph 1016mb 74f 76f
5:30  -   -   -  27 34 mph 1016mb 74f 76f
5:20  -   -   -  25 31 mph 1016mb 74f 76f
5:10  -   -   -  27 31 mph 1016mb 74f 76f
5:00  -   -   -  27 34 mph 1015.8mb - -
4:50 10ft 7s 6s 27 36 mph 1015.6mb 74f 76f
4:40 10ft  -  6s 27 36 mph 1015.5mb 74f 76f
4:30  -   -   -  27 34 mph 1015.5mb 74f 76f
4:20  -   -   -  27 34 mph 1015.5mb 74f 76f
4:10  -   -   -  27 31 mph 1015.5mb 73f 76f
4:00  -   -   -  27 34 mph 1015.4mb 73f 76f
3:50 10.5ft 8s 6s 27 34 mph 1015.4mb 73f 76f
3:40 10.5ft  -  6s 27 36 mph 1015.3mb 73f 76f
3:30  -   -   -  29 38 mph 1015.3mb 73f 76f
3:20  -   -   -  27 34 mph 1015.4mb 73f 76f
3:10  -   -   -  27 34 mph 1015.3mb - 76f
3:00  -   -   -  29 36 mph 1015.1mb 73f 76f
2:50 11ft 8s 6s 29 34 mph 1015.1mb 73f 76f
2:40 11ft  -  6s 27 38 mph 1015.1mb 73f 76f
2:30  -   -   -  29 40 mph 1015.1mb 73f 76f
2:20  -   -   -  29 38 mph 1015mb 73f 76f
2:10  -   -   -  31 38 mph 1015.1mb 73f 75f
2:00  -   -   -  29 36 mph 1015.1mb 73f 75f
1:50 11ft 8s 6s 29 36 mph 1015mb 73f 75f
1:40  -   -   -  29 38 mph 1015.1mb 73f 75f
1:30  -   -   -  29 36 mph 1015.1mb 73f 75f
1:20  -   -   -  31 38 mph 1015.1mb 73f 75f
1:10  -   -   -  31 40 mph 1015mb - 75f
1:00  -   -   -  31 40 mph 1015mb 73f 75f
12:50 10ft 7s 6s 34 40 mph 1014.9mb 74f 75f
12:40 10ft  -  6s 34 43 mph 1015mb 74f 75f
12:30  -   -   -  34 43 mph 1015mb 74f 75f
12:20  -   -   -  34 43 mph 1015.1mb 74f 75f
12:10  -   -   -  31 43 mph 1015.5mb 74f 75f
12:00  -   -   -  34 40 mph 1015.6mb 74f 75f
11:50 9ft 7s 6s 34 43 mph 1015.6mb 74f 75f
11:40 9ft  -  6s 34 40 mph 1015.9mb 74f 75f
11:30  -   -   -  31 43 mph 1015.9mb 74f 74f
11:20  -   -   -  31 40 mph 1016.3mb 74f 75f
11:10  -   -   -  34 40 mph 1016.5mb 74f 75f
11:00  -   -   -  34 43 mph 1016.6mb 74f 75f
10:50 9ft 7s 6s 34 40 mph 1016.8mb 74f 76f
10:40 9ft  -  6s 34 45 mph 1017mb 75f 75f
10:30  -   -   -  31 38 mph 1017.1mb 75f 75f
10:20  -   -   -  31 40 mph 1017.1mb 75f 75f
10:10  -   -   -  31 40 mph 1017.1mb 75f 75f
10:00  -   -   -  31 38 mph 1017mb 75f 75f
9:50 8.5ft 7s 6s 29 38 mph 1017.3mb 75f 75f
9:40 8.5ft  -  6s 29 38 mph 1017.4mb 75f 75f
9:30  -   -   -  29 40 mph 1017.5mb 76f 75f
9:20  -   -   -  31 38 mph 1017.5mb 76f 75f
9:10  -   -   -  31 38 mph 1017.5mb 76f 75f
9:00  -   -   -  31 38 mph 1017.4mb 76f 75f
8:50 8ft 7s 6s 31 38 mph 1017.1mb 76f 75f
8:40 8ft  -  6s 29 38 mph 1017mb 76f 75f
8:30  -   -   -  29 38 mph 1017mb 76f 75f
8:20  -   -   -  29 38 mph 1016.9mb - -
8:10  -   -   -  29 36 mph 1017mb 76f 75f
8:00  -   -   -  29 36 mph 1017mb 76f 75f
7:50 8ft 7s 5s 29 36 mph 1017mb 76f 75f
7:40 8ft  -  5s 29 36 mph 1017mb 76f 75f
7:30  -   -   -  29 36 mph 1017mb 76f 75f
7:20  -   -   -  29 36 mph 1017mb 76f 75f
7:10  -   -   -  29 38 mph 1016.8mb 76f 75f
7:00  -   -   -  27 36 mph 1016.9mb 76f 75f
6:50 7ft 7s 5s 29 38 mph 1016.6mb 76f 74f
6:40 7ft  -  5s 27 36 mph 1016.5mb 76f 75f
6:30  -   -   -  29 34 mph 1016.5mb 76f 75f
6:20  -   -   -  29 34 mph 1016.4mb 76f 75f
6:10  -   -   -  27 34 mph 1016.3mb 76f 74f
6:00  -   -   -  29 36 mph 1016.3mb 76f 74f
5:50 7ft 6s 5s 27 34 mph 1016.1mb 76f 75f
5:40 7ft  -  5s 29 34 mph 1016.1mb 76f 74f
5:30  -   -   -  27 34 mph 1016mb 76f 74f
5:20  -   -   -  29 38 mph 1016mb 76f 74f
5:10  -   -   -  31 38 mph 1015.5mb 76f 74f
5:00  -   -   -  29 36 mph 1015.8mb 76f 74f
4:50 7.5ft 6s 5s 29 36 mph 1016mb 76f 74f
4:40  -   -   -  27 36 mph 1015.9mb 76f 74f
4:30  -   -   -  29 38 mph 1015.6mb 76f 74f
4:20  -   -   -  31 38 mph 1015.8mb 76f 73f
4:10  -   -   -  31 38 mph 1015.6mb 76f 73f
4:00  -   -   -  34 43 mph 1015.5mb 76f 74f
3:50 6.5ft 6s 5s 31 40 mph 1015.5mb 76f 74f
3:40 6.5ft  -  5s 31 40 mph 1015.1mb 76f 74f
3:30  -   -   -  31 38 mph 1015.5mb 76f 74f
3:20  -   -   -  29 36 mph 1015.4mb 76f 74f
3:10  -   -   -  29 36 mph 1015.5mb 76f 74f
3:00  -   -   -  27 34 mph 1015.8mb 76f 74f
2:50 6.5ft 6s 5s 27 34 mph 1016mb 76f 74f
2:40 6.5ft  -  5s 27 34 mph 1015.8mb 76f 74f
2:30  -   -   -  27 34 mph 1016.1mb 76f 73f
2:20  -   -   -  27 31 mph 1016.3mb 76f 73f
2:10  -   -   -  25 31 mph 1016.5mb 76f 73f
2:00  -   -   -  27 36 mph 1016.8mb 76f 73f
1:50 6ft 6s 5s 25 34 mph 1017.1mb 76f 73f
1:40  -   -   -  25 29 mph 1017.4mb 76f 73f
1:30  -   -   -  25 31 mph 1017.5mb - -
1:20  -   -   -  25 31 mph 1017.6mb 76f 73f
1:10  -   -   -  25 31 mph 1017.5mb 76f 73f
1:00  -   -   -  25 31 mph 1017.5mb - -
12:50 5.5ft 5s 5s 25 31 mph 1017.5mb 76f 73f
12:40  -   -   -  27 36 mph 1017.6mb 75f 73f
12:30  -   -   -  27 34 mph 1017.8mb 75f 73f
12:20  -   -   -  27 36 mph 1017.9mb 75f 73f
12:10  -   -   -  25 31 mph 1018.1mb 75f 72f
12:00  -   -   -  25 31 mph 1018.5mb 75f 72f
lun 11/28 11:50 5ft 6s 5s 25 29 mph 1018.3mb 75f 72f
11:40 5ft  -  5s 25 31 mph 1018.3mb 76f 72f
11:30  -   -   -  25 31 mph 1018.5mb 76f 72f
11:20  -   -   -  27 34 mph 1018.3mb 76f 72f
11:10  -   -   -  22 29 mph 1018.3mb 76f 72f
11:00  -   -   -  22 31 mph 1018.4mb 76f 71f
10:50 5ft 5s 5s 22 31 mph 1018.5mb 76f 72f
10:40 5ft  -  5s 25 31 mph 1018.4mb 76f 71f
10:30  -   -   -  25 31 mph 1018.5mb 76f 71f
10:20  -   -   -  25 31 mph 1018.5mb 76f 71f
10:10  -   -   -  22 29 mph 1018.4mb 76f 71f
10:00  -   -   -  22 29 mph 1018.5mb 76f 71f
9:50 5ft 5s 5s 22 29 mph 1018.3mb 76f 71f
9:40  -   -   -  22 29 mph 1018.4mb 76f 71f
9:30  -   -   -  25 29 mph 1018.5mb 76f 71f
9:20  -   -   -  25 29 mph 1018.6mb 77f 71f
9:10  -   -   -  22 29 mph 1018.8mb 76f 70f
9:00  -   -   -  25 34 mph 1019mb 77f 70f
8:50 4.5ft 4s 5s 22 27 mph 1018.8mb 77f 70f
8:40  -   -   -  20 27 mph 1018.9mb 77f 70f
8:30  -   -   -  20 27 mph 1019mb 77f 70f
8:20  -   -   -  20 27 mph 1019mb 77f 70f
8:10  -   -   -  20 27 mph 1019mb 77f 70f
8:00  -   -   -  22 31 mph 1019.3mb 77f 70f
7:50 4ft 4s 4s 22 29 mph 1019mb - 70f
7:40 4ft  -  4s 22 29 mph 1019mb 77f 69f
7:30  -   -   -  20 29 mph 1019mb 77f 69f
7:20  -   -   -  20 25 mph 1019mb 77f 69f
7:10  -   -   -  20 25 mph 1019mb 77f 70f
7:00  -   -   -  22 27 mph 1018.8mb 77f 69f
6:50 3.5ft 8s 4s 22 27 mph 1018.9mb 77f 69f
6:40 3.5ft  -  4s 20 27 mph 1018.8mb 76f 69f
6:30  -   -   -  20 27 mph 1018.9mb 76f 69f
6:20  -   -   -  20 27 mph 1019mb 76f 69f
6:10  -   -   -  22 27 mph 1018.5mb 76f 69f
6:00  -   -   -  20 27 mph 1018.9mb 76f 69f